Orlando, FL

10:50 PM EST on December 09, 2016 (GMT -0500)
Executive

Weather History for KORL - December, 2012

Change the Weather History Date:

Tuesday, December 11, 2012

  Actual Average Record
Temperature  
Mean Temperature 74 °F -  
Max Temperature 80 °F 70 °F 82 °F (2001)
Min Temperature 68 °F 53 °F 45 °F (2014)
Cooling Degree Days 9    
Growing Degree Days 24 (Base 50)    
Moisture  
Dew Point 69 °F    
Average Humidity 89    
Maximum Humidity 97    
Minimum Humidity 69    
Precipitation  
Precipitation 0.00 in - - ()
Sea Level Pressure  
Sea Level Pressure 29.98 in    
Wind  
Wind Speed 5 mph (South)    
Max Wind Speed 9 mph    
Max Gust Speed -    
Visibility 9 miles    
Events Rain    
Averages and records for this station are not official NWS values.
T = Trace of Precipitation, MM = Missing Value Source: NWS Daily Summary

Daily Weather History Graph

Daily Weather History Graph

Search for Another Location

Airport or City:

Trip Planner

Search our weather history database for the weather conditions in past years. The results will help you decide how hot, cold, wet, or windy it might be!

Date:

Astronomy

Dec. 11, 2012 Rise Set
Actual Time 7:08 AM EST 5:29 PM EST
Civil Twilight 6:42 AM EST 5:55 PM EST
Nautical Twilight 6:12 AM EST 6:24 PM EST
Astronomical Twilight 5:44 AM EST 6:53 PM EST
Moon 5:05 AM EST (12/11) 4:04 PM EST (12/11)
Length of Visible Light 11h 13m
Length of Day
10h 21m
Waning Crescent, 4% of the Moon is Illuminated
Dec 11
Waning Crescent
Dec 13
New
Dec 20
First Quarter
Dec 28
Full
Jan 4
Last Quarter

Hourly Weather History & Observations

Time (EST) Temp. Heat Index Dew Point Humidity Pressure Visibility Wind Dir Wind Speed Gust Speed Precip Events Conditions
12:30 AM 71.6 °F - 68.0 °F 88% 29.91 in 10.0 mi SW 9.2 mph - N/A   Partly Cloudy
12:53 AM 70.0 °F - 66.9 °F 90% 29.91 in 10.0 mi SSW 5.8 mph - N/A   Clear
1:53 AM 69.1 °F - 66.9 °F 93% 29.93 in 10.0 mi SW 6.9 mph - N/A   Clear
2:53 AM 69.1 °F - 66.9 °F 93% 29.91 in 10.0 mi SSW 6.9 mph - N/A   Clear
3:53 AM 68.0 °F - 66.0 °F 93% 29.92 in 10.0 mi SW 6.9 mph - N/A   Clear
4:53 AM 68.0 °F - 66.9 °F 96% 29.92 in 10.0 mi SSW 6.9 mph - N/A   Clear
5:08 AM 68.0 °F - 66.2 °F 94% 29.91 in 10.0 mi SSW 6.9 mph - N/A   Partly Cloudy
5:48 AM 68.0 °F - 66.2 °F 94% 29.92 in 10.0 mi West 3.5 mph - N/A   Mostly Cloudy
5:53 AM 68.0 °F - 66.9 °F 96% 29.94 in 10.0 mi WSW 3.5 mph - N/A   Mostly Cloudy
6:11 AM 68.0 °F - 66.2 °F 94% 29.93 in 10.0 mi West 4.6 mph - N/A   Scattered Clouds
6:24 AM 68.0 °F - 66.2 °F 94% 29.93 in 10.0 mi West 4.6 mph - N/A   Scattered Clouds
6:30 AM 69.8 °F - 66.2 °F 88% 29.94 in 10.0 mi WSW 3.5 mph - N/A   Mostly Cloudy
6:48 AM 69.8 °F - 66.2 °F 88% 29.94 in 10.0 mi WSW 4.6 mph - N/A   Scattered Clouds
6:53 AM 69.1 °F - 68.0 °F 96% 29.95 in 10.0 mi WSW 4.6 mph - N/A   Scattered Clouds
6:56 AM 69.8 °F - 68.0 °F 94% 29.94 in 10.0 mi WSW 5.8 mph - N/A   Overcast
7:45 AM 69.8 °F - 68.0 °F 94% 29.95 in 2.0 mi SW 6.9 mph - N/A   Overcast
7:53 AM 70.0 °F - 69.1 °F 97% 29.97 in 2.0 mi SW 5.8 mph - N/A   Overcast
8:53 AM 70.0 °F - 68.0 °F 93% 29.99 in 2.0 mi WSW 3.5 mph - N/A   Overcast
9:24 AM 71.6 °F - 69.8 °F 94% 29.99 in 2.0 mi SW 4.6 mph - N/A   Overcast
9:44 AM 71.6 °F - 69.8 °F 94% 30.00 in 4.0 mi SSW 4.6 mph - N/A   Overcast
9:53 AM 72.0 °F - 69.1 °F 91% 30.01 in 4.0 mi SSW 4.6 mph - N/A   Overcast
10:53 AM 75.0 °F - 69.1 °F 82% 30.02 in 10.0 mi West 5.8 mph - N/A   Mostly Cloudy
11:09 AM 73.4 °F - 69.8 °F 88% 30.01 in 10.0 mi Calm Calm - N/A   Mostly Cloudy
11:27 AM 75.2 °F - 69.8 °F 83% 30.00 in 10.0 mi Calm Calm - N/A   Scattered Clouds
11:53 AM 77.0 °F - 69.1 °F 76% 30.00 in 10.0 mi Calm Calm - N/A   Clear
12:46 PM 78.8 °F - 69.8 °F 74% 29.98 in 10.0 mi South 4.6 mph - N/A   Mostly Cloudy
12:53 PM 78.1 °F - 69.1 °F 74% 29.98 in 10.0 mi Calm Calm - N/A   Mostly Cloudy
1:19 PM 80.6 °F 83.9 °F 69.8 °F 70% 29.96 in 10.0 mi SW 3.5 mph - N/A   Mostly Cloudy
1:53 PM 79.0 °F - 69.1 °F 72% 29.96 in 10.0 mi Calm Calm - N/A   Mostly Cloudy
2:53 PM 80.1 °F 82.9 °F 69.1 °F 69% 29.96 in 10.0 mi Calm Calm - N/A   Overcast
3:00 PM 80.6 °F 83.9 °F 69.8 °F 70% 29.94 in 10.0 mi Calm Calm - N/A   Mostly Cloudy
3:53 PM 79.0 °F - 69.1 °F 72% 29.96 in 10.0 mi NNW 5.8 mph - N/A   Clear
4:53 PM 78.1 °F - 69.1 °F 74% 29.98 in 10.0 mi Calm Calm - N/A   Mostly Cloudy
5:53 PM 75.9 °F - 69.1 °F 79% 29.98 in 10.0 mi ENE 4.6 mph - 0.00 in Rain Light Rain
6:20 PM 73.4 °F - 69.8 °F 88% 29.96 in 10.0 mi East 4.6 mph - 0.00 in   Mostly Cloudy
6:43 PM 73.4 °F - 71.6 °F 94% 29.97 in 10.0 mi ENE 8.1 mph - 0.00 in   Scattered Clouds
6:53 PM 73.9 °F - 71.1 °F 91% 29.99 in 10.0 mi ENE 5.8 mph - 0.00 in   Scattered Clouds
7:02 PM 73.4 °F - 71.6 °F 94% 29.98 in 10.0 mi ENE 8.1 mph - N/A   Mostly Cloudy
7:19 PM 73.4 °F - 71.6 °F 94% 29.97 in 10.0 mi ENE 9.2 mph - N/A   Scattered Clouds
7:53 PM 72.0 °F - 70.0 °F 93% 30.01 in 10.0 mi ENE 4.6 mph - N/A   Scattered Clouds
8:51 PM 71.6 °F - 69.8 °F 94% 30.02 in 9.0 mi East 5.8 mph - N/A   Mostly Cloudy
8:53 PM 71.1 °F - 69.1 °F 93% 30.03 in 9.0 mi East 5.8 mph - N/A   Mostly Cloudy
9:00 PM 71.6 °F - 69.8 °F 94% 30.02 in 9.0 mi East 4.6 mph - N/A   Overcast
9:41 PM 71.6 °F - 69.8 °F 94% 30.03 in 8.0 mi East 4.6 mph - N/A   Overcast
9:53 PM 71.1 °F - 70.0 °F 96% 30.05 in 8.0 mi East 5.8 mph - N/A   Overcast
10:41 PM 71.6 °F - 69.8 °F 94% 30.04 in 8.0 mi East 4.6 mph - N/A   Scattered Clouds
10:50 PM 71.6 °F - 69.8 °F 94% 30.04 in 7.0 mi East 3.5 mph - N/A   Mostly Cloudy
10:53 PM 71.1 °F - 70.0 °F 96% 30.05 in 7.0 mi ESE 4.6 mph - N/A   Scattered Clouds
11:03 PM 71.6 °F - 69.8 °F 94% 30.05 in 7.0 mi Calm Calm - N/A   Mostly Cloudy
11:53 PM 71.1 °F - 70.0 °F 96% 30.04 in 8.0 mi East 5.8 mph - N/A   Overcast